Total_Precipitation_Accumulation
0.87 0.84 0.77 0.77 0.71 0.77 0.87 0.94 0.89 0.80 0.73 0.66 0.62 0.66 0.69 0.72 0.76 0.82 0.88 0.80 0.86 1.03 1.15 1.10 0.95 0.78 0.69 0.71 0.72 0.73 0.80 0.83 0.82 0.87 0.81 0.71 0.61 0.48 0.36 0.35 0.36 0.36 0.41
0.93 0.90 0.85 0.86 0.83 0.84 0.96 0.94 0.85 0.88 0.85 0.74 0.62 0.62 0.67 0.75 0.79 0.77 0.80 0.89 0.88 0.87 1.08 1.23 1.20 0.97 0.87 0.82 0.83 0.85 0.85 0.81 0.78 0.79 0.74 0.70 0.63 0.55 0.46 0.40 0.41 0.37 0.37
0.83 0.86 0.87 0.87 0.91 0.99 1.04 1.06 0.90 0.89 0.83 0.73 0.66 0.61 0.59 0.63 0.66 0.71 0.69 0.67 0.73 0.79 0.95 1.18 1.29 1.16 1.06 1.01 0.94 0.90 0.87 0.81 0.78 0.71 0.66 0.60 0.55 0.52 0.48 0.48 0.48 0.44 0.42
0.77 0.90 0.90 0.88 0.91 1.03 1.10 1.14 1.04 0.96 0.88 0.83 0.80 0.71 0.65 0.66 0.64 0.70 0.71 0.61 0.70 0.68 0.80 0.88 1.02 1.12 1.13 1.08 1.04 0.94 0.83 0.73 0.66 0.64 0.60 0.53 0.46 0.40 0.39 0.45 0.47 0.48 0.46
0.83 1.00 1.10 1.11 1.11 1.12 1.10 1.05 1.09 1.04 0.98 0.96 0.92 0.88 0.78 0.71 0.71 0.67 0.70 0.70 0.65 0.69 0.78 0.60 0.62 0.70 0.86 0.98 1.02 1.05 0.92 0.77 0.65 0.60 0.58 0.48 0.38 0.33 0.31 0.37 0.38 0.39 0.41
1.18 1.32 1.32 1.39 1.46 1.32 1.26 1.20 1.21 1.15 1.06 1.07 1.02 0.91 0.83 0.72 0.76 0.78 0.77 0.77 0.71 0.68 0.76 0.65 0.56 0.47 0.54 0.74 0.89 1.07 1.03 0.90 0.77 0.65 0.61 0.51 0.39 0.31 0.29 0.30 0.33 0.32 0.34
1.52 1.72 1.69 1.73 1.75 1.61 1.55 1.61 1.79 1.73 1.46 1.24 1.24 1.06 0.89 0.73 0.80 0.81 0.77 0.79 0.78 0.84 0.93 0.84 0.65 0.56 0.45 0.47 0.55 0.81 1.01 0.98 0.95 0.82 0.73 0.64 0.48 0.33 0.28 0.29 0.31 0.32 0.30
1.44 1.57 1.82 1.91 1.83 1.83 1.94 1.97 2.27 2.39 1.97 1.56 1.54 1.61 1.35 1.13 0.84 0.69 0.72 0.73 0.80 0.99 1.01 0.87 0.75 0.61 0.52 0.53 0.37 0.44 0.71 0.92 1.00 0.99 0.89 0.76 0.60 0.43 0.32 0.28 0.30 0.32 0.33
1.41 1.51 1.66 1.82 1.82 1.88 1.96 2.07 2.39 2.82 2.57 2.07 1.83 2.00 1.68 1.47 1.26 0.86 0.69 0.70 0.81 0.98 1.10 1.05 0.96 0.83 0.68 0.69 0.58 0.40 0.40 0.57 0.89 1.07 1.09 0.96 0.74 0.52 0.40 0.36 0.35 0.38 0.37
1.30 1.37 1.51 1.64 1.76 1.78 1.90 2.00 2.11 2.56 2.87 2.55 2.26 1.93 1.60 1.51 1.56 1.32 0.92 0.81 0.87 0.93 1.01 1.02 1.02 1.06 0.95 0.87 0.77 0.50 0.38 0.39 0.68 1.04 1.23 1.22 0.98 0.76 0.60 0.51 0.47 0.46 0.41
1.40 1.39 1.53 1.60 1.61 1.66 1.76 2.09 2.34 2.59 2.77 2.70 2.59 2.42 2.17 1.85 1.47 1.52 1.43 1.15 1.04 0.96 0.99 1.04 1.07 1.08 1.07 1.05 1.11 0.77 0.50 0.41 0.48 0.87 1.28 1.48 1.34 1.07 0.86 0.73 0.62 0.56 0.49
1.49 1.53 1.59 1.59 1.56 1.59 1.69 1.91 2.18 2.39 2.71 2.87 2.75 2.53 2.36 2.19 1.93 1.75 1.52 1.41 1.36 1.14 1.08 1.08 1.04 1.07 1.12 1.21 1.22 1.16 0.71 0.43 0.39 0.57 0.93 1.29 1.45 1.34 1.15 1.01 0.85 0.78 0.70
1.37 1.41 1.52 1.64 1.72 1.74 1.85 2.02 2.16 2.07 2.29 2.67 2.65 2.47 2.34 2.09 2.04 2.06 1.89 1.60 1.43 1.14 1.07 1.05 1.00 1.12 1.12 1.12 1.33 1.49 0.97 0.61 0.45 0.50 0.62 0.81 1.05 1.24 1.37 1.34 1.23 1.12 0.99
1.33 1.27 1.32 1.43 1.57 1.73 1.78 1.83 1.84 1.81 1.94 2.18 2.26 2.41 2.48 2.21 2.03 1.90 1.80 1.82 1.56 1.32 1.15 1.05 0.96 0.99 1.05 1.09 1.29 1.46 1.06 0.80 0.56 0.49 0.50 0.61 0.70 0.77 0.99 1.18 1.34 1.39 1.35
1.09 1.02 1.02 1.07 1.15 1.23 1.31 1.46 1.55 1.66 1.71 1.83 1.98 2.10 2.24 2.32 2.22 1.96 1.86 1.81 1.74 1.54 1.35 1.25 1.11 0.94 1.04 1.14 1.33 1.16 1.04 1.00 0.77 0.58 0.52 0.53 0.58 0.59 0.63 0.68 0.80 0.94 1.12
1.01 0.94 0.90 0.86 0.83 0.81 0.85 1.03 1.22 1.34 1.45 1.61 1.80 1.93 1.94 1.99 2.16 2.11 1.92 1.88 1.77 1.61 1.47 1.30 1.22 1.07 1.22 1.17 1.30 1.12 1.12 1.19 0.88 0.68 0.57 0.55 0.54 0.49 0.46 0.44 0.42 0.42 0.48
0.99 0.98 0.89 0.82 0.89 0.89 0.85 0.91 0.96 1.02 1.10 1.25 1.40 1.53 1.68 1.92 2.20 2.22 2.17 2.04 1.90 1.72 1.47 1.34 1.15 1.06 1.33 1.43 1.36 1.21 1.17 1.13 0.91 0.82 0.68 0.61 0.58 0.52 0.47 0.42 0.39 0.35 0.33
0.67 0.76 0.84 0.79 0.78 0.80 0.82 0.88 0.90 0.94 0.97 1.05 1.15 1.27 1.44 1.73 2.07 2.28 2.36 2.26 2.10 1.93 1.76 1.61 1.30 1.06 1.16 1.48 1.61 1.53 1.29 1.13 1.01 0.96 0.84 0.72 0.66 0.59 0.51 0.48 0.45 0.41 0.37
0.50 0.54 0.63 0.64 0.73 0.80 0.83 0.85 0.87 0.91 0.93 1.01 1.16 1.21 1.27 1.46 1.65 1.86 2.05 2.17 2.15 2.12 2.06 1.81 1.52 1.27 1.20 1.31 1.54 1.55 1.47 1.41 1.22 1.16 1.15 1.01 0.88 0.79 0.68 0.58 0.53 0.47 0.41
0.52 0.58 0.70 0.74 0.70 0.68 0.73 0.84 0.88 0.84 0.83 0.87 0.96 1.05 1.15 1.19 1.35 1.48 1.59 1.77 1.98 2.21 2.27 2.11 1.85 1.54 1.41 1.29 1.38 1.53 1.60 1.53 1.44 1.27 1.24 1.14 1.11 1.04 0.94 0.79 0.65 0.57 0.54
0.57 0.59 0.70 0.81 0.87 0.83 0.80 0.89 0.86 0.84 0.84 0.83 0.88 0.88 0.94 0.97 1.03 1.20 1.24 1.45 1.77 2.04 2.14 2.20 2.09 1.79 1.53 1.35 1.14 1.23 1.48 1.67 1.65 1.56 1.56 1.35 1.21 1.08 1.00 0.97 0.90 0.77 0.67
0.47 0.47 0.51 0.58 0.68 0.72 0.93 0.89 0.74 0.70 0.75 0.82 0.87 0.86 0.88 0.83 0.81 0.87 0.99 1.11 1.40 1.61 1.74 1.81 1.84 1.69 1.49 1.35 1.30 1.26 1.31 1.44 1.49 1.38 1.41 1.48 1.43 1.30 1.20 1.08 1.11 1.13 1.02
0.40 0.38 0.37 0.38 0.44 0.60 0.68 0.52 0.51 0.57 0.71 0.82 0.89 0.92 0.88 0.83 0.87 0.88 0.89 0.89 0.95 1.12 1.33 1.53 1.56 1.47 1.52 1.43 1.35 1.25 1.26 1.26 1.25 1.35 1.40 1.45 1.44 1.36 1.30 1.29 1.32 1.22 1.14
0.30 0.29 0.37 0.44 0.46 0.48 0.53 0.44 0.43 0.54 0.73 0.87 0.87 0.83 0.89 0.90 0.93 0.99 0.92 0.97 0.92 0.89 0.98 1.03 1.17 1.38 1.52 1.67 1.63 1.53 1.53 1.46 1.37 1.43 1.43 1.39 1.31 1.24 1.17 1.16 1.22 1.10 1.01
0.34 0.37 0.49 0.56 0.50 0.42 0.46 0.48 0.53 0.68 0.81 0.89 0.85 0.85 0.92 0.96 1.09 1.13 1.04 1.09 1.03 0.99 0.95 1.05 1.14 1.25 1.34 1.46 1.58 1.60 1.56 1.52 1.39 1.32 1.31 1.25 1.16 1.18 1.16 1.07 1.01 1.01 0.91
0.31 0.39 0.41 0.38 0.38 0.44 0.51 0.50 0.63 0.81 0.93 1.03 0.99 0.98 1.16 1.11 1.08 1.03 1.01 1.15 1.11 0.95 0.87 0.90 0.95 1.02 1.07 1.18 1.30 1.32 1.43 1.49 1.40 1.26 1.11 1.07 1.08 1.10 1.12 1.04 0.94 0.89 0.85